DateTimeUTC,F1_A11,F1_S11,BsB_S11,BsG_S11,BsR_S11,BbsB_S11,BbsG_S11,BbsR_S11,BaB_A11,BaG_A11,BaR_A11,T_S11,U_S11,P_S11,T1_A11
2020-01-21T00:00:00Z,00000388,21000608,,,,,,,,,,22.0,00.0,0613.8,30.8
2020-01-21T00:01:00Z,00000388,21000608,,,,,,,,,,22.0,00.0,0613.9,30.8
2020-01-21T00:02:00Z,00000388,21000608,,,,,,,,,,22.0,00.0,0613.9,30.8
2020-01-21T00:03:00Z,00000388,61000608,,,,,,,,,,22.0,00.0,0613.9,30.8
2020-01-21T00:04:00Z,00000388,41000608,-000.35,0000.85,0000.55,0000.13,-000.20,0000.18,-000.00,-000.04,0000.12,21.8,00.0,0614.8,30.8
2020-01-21T00:05:00Z,00000388,01000608,0001.51,-000.13,-000.28,0000.37,-000.08,0000.39,-000.12,-000.02,-000.22,21.8,00.0,0614.9,30.8
2020-01-21T00:06:00Z,00000388,01000608,0000.33,0000.07,0000.02,-000.12,-000.19,0000.01,0000.07,-000.09,0000.18,21.8,00.0,0614.9,30.8
2020-01-21T00:07:00Z,00000388,01000608,0000.43,0000.44,0000.31,0000.86,-000.10,0000.11,-000.18,-000.23,-000.19,21.8,00.0,0614.9,30.8
2020-01-21T00:08:00Z,00000388,01000608,0000.05,0000.46,-000.01,-000.24,0000.04,-000.09,0000.32,0000.24,0000.16,21.8,00.0,0614.8,30.8
2020-01-21T00:09:00Z,00000388,01000608,-000.68,-000.51,0000.22,-000.41,-000.13,-000.08,-000.08,0000.13,0000.02,21.8,00.0,0614.8,30.8
2020-01-21T00:10:00Z,00000388,01000608,0000.29,0000.11,0000.16,-000.38,0000.25,0000.03,0000.06,-000.14,0000.01,21.8,00.0,0614.8,30.8
2020-01-21T00:11:00Z,00000388,01000608,0000.02,-000.39,0000.90,0000.21,-000.03,0000.43,-000.14,-000.14,-000.22,21.8,00.0,0614.9,30.8
2020-01-21T00:12:00Z,00000388,01000608,0000.06,0000.30,0000.58,0000.05,0000.25,-000.21,0000.12,0000.17,0000.16,21.8,00.0,0614.9,30.8
2020-01-21T00:13:00Z,00000388,01000608,0000.56,0000.02,0000.61,0000.74,-000.13,-000.02,-000.08,-000.02,-000.00,21.8,00.0,0614.9,30.8
2020-01-21T00:14:00Z,00000388,01000608,0001.03,0000.12,0000.54,-000.04,0000.23,-000.05,0000.12,0000.14,-000.02,21.8,00.0,0615.0,30.8
2020-01-21T00:15:00Z,00000388,01000608,0000.45,0000.02,-000.11,0000.59,-000.35,0000.02,-000.09,0000.10,0000.11,21.8,00.0,0615.0,30.8
2020-01-21T00:16:00Z,00000388,01000608,0000.93,0000.41,-000.12,0000.53,0000.41,-000.12,0000.05,-000.02,0000.06,21.8,00.0,0615.0,30.8
2020-01-21T00:17:00Z,00000388,01000608,0000.15,0000.15,-000.21,0001.41,0000.29,-000.12,-000.04,-000.09,-000.18,21.8,00.0,0615.1,30.8
2020-01-21T00:18:00Z,00000388,01000608,-000.61,-000.44,0000.22,-000.03,0000.21,-000.04,0000.00,-000.03,0000.07,21.8,00.0,0615.1,30.8
2020-01-21T00:19:00Z,00000388,01000608,0001.10,-000.13,-000.11,0000.24,-000.01,0000.01,0000.02,-000.00,0000.08,21.8,00.0,0615.1,30.8
2020-01-21T00:20:00Z,00000388,01000608,0001.63,-000.50,-000.32,-000.30,0000.20,0000.23,0000.15,0000.23,0000.03,21.8,00.0,0615.2,30.8
2020-01-21T00:21:00Z,00000388,01000608,-000.77,0000.36,0000.50,-000.50,0000.23,-000.10,-000.10,-000.12,0000.06,21.8,00.0,0615.1,30.8
2020-01-21T00:22:00Z,00000388,01000608,-000.29,-000.10,-000.06,-000.68,-000.01,-000.04,0000.04,0000.07,-000.15,21.8,00.0,0615.1,30.8
2020-01-21T00:23:00Z,00000388,01000608,0000.23,-000.37,-000.25,0000.09,0000.74,-000.04,0000.07,0000.04,0000.13,21.8,00.0,0615.1,30.8
2020-01-21T00:24:00Z,00000388,01000608,-000.16,0000.11,-000.09,0000.28,0000.17,-000.10,-000.06,-000.08,0000.00,21.8,00.0,0615.1,30.8
2020-01-21T00:25:00Z,00000388,01000608,0000.12,-000.15,0000.02,0000.41,-000.32,0000.69,-000.03,0000.14,-000.15,21.8,00.0,0615.2,30.8
2020-01-21T00:26:00Z,00000388,01000608,0000.88,0000.49,0000.08,0000.62,-000.16,-000.26,0000.23,0000.03,0000.03,21.8,00.0,0615.2,30.8
2020-01-21T00:27:00Z,00000388,01000608,0000.28,-000.00,-000.22,-000.50,-000.19,0000.13,-000.07,-000.12,-000.00,21.8,00.0,0615.2,30.8
2020-01-21T00:28:00Z,00000388,01000608,0000.78,0000.50,-000.62,0001.03,-000.03,-000.09,-000.14,-000.13,0000.03,21.8,00.0,0615.2,30.8
2020-01-21T00:29:00Z,00000388,01000608,0001.06,0000.37,-000.04,-000.80,0000.01,-000.45,0000.10,0000.14,0000.22,21.8,00.0,0615.1,30.8
2020-01-21T00:30:00Z,00000388,01000608,0001.41,0000.88,0000.43,-000.78,-000.15,0000.18,-000.06,-000.04,-000.04,21.8,00.0,0615.1,30.8
2020-01-21T00:31:00Z,00000388,01000608,0000.34,0000.11,0000.01,-000.36,0000.11,-000.15,0000.11,0000.02,-000.03,21.8,00.0,0615.2,30.8
2020-01-21T00:32:00Z,00000388,01000608,-000.58,0000.67,-000.26,0000.21,0000.17,-000.20,0000.04,0000.18,0000.02,21.8,00.0,0615.2,30.8
2020-01-21T00:33:00Z,00000388,01000608,-000.29,0000.26,-000.23,0000.90,-000.16,0000.31,0000.06,-000.16,0000.04,21.8,00.0,0615.2,30.8
2020-01-21T00:34:00Z,00000388,01000608,0000.65,0000.15,0000.35,-000.72,0000.23,-000.13,-000.13,0000.01,-000.15,21.8,00.0,0615.2,30.8
2020-01-21T00:35:00Z,00000388,01000608,-000.08,0000.09,-000.01,0000.28,-000.06,-000.25,0000.06,0000.07,0000.17,21.8,00.0,0615.2,30.8
2020-01-21T00:36:00Z,00000388,01000608,0001.67,-000.09,0000.01,0000.48,-000.02,-000.13,0000.04,0000.08,-000.04,21.8,00.0,0615.3,30.8
2020-01-21T00:37:00Z,00000388,01000608,-000.45,0000.30,0000.14,0001.73,0000.05,0000.61,-000.12,-000.22,-000.11,21.8,00.0,0615.3,30.8
2020-01-21T00:38:00Z,00000388,01000608,0000.30,-000.30,-000.04,0001.14,0000.27,-000.02,0000.05,0000.11,-000.00,21.8,00.0,0615.3,30.8
2020-01-21T00:39:00Z,00000388,01000608,0001.65,0000.34,0000.11,0000.56,-000.44,0000.01,0000.02,0000.17,0000.18,21.8,00.0,0615.3,30.8
2020-01-21T00:40:00Z,00000388,01000608,0000.88,0000.02,0000.19,0001.45,0000.14,0000.04,0000.06,-000.24,0000.03,21.8,00.0,0615.3,30.8
2020-01-21T00:41:00Z,00000388,01000608,-000.51,0000.09,-000.07,0000.23,-000.50,-000.18,0000.12,0000.20,0000.02,21.8,00.0,0615.4,30.8
2020-01-21T00:42:00Z,00000388,01000608,0000.03,0000.37,0000.36,0001.12,-000.10,0000.28,-000.19,0000.02,-000.02,21.8,00.0,0615.4,30.8
2020-01-21T00:43:00Z,00000388,01000608,0000.45,-000.55,0000.55,-000.21,-000.36,0000.24,0000.11,-000.16,-000.09,21.8,00.0,0615.4,30.8
2020-01-21T00:44:00Z,00000388,01000608,-000.22,0000.12,0000.17,-000.82,-000.04,0000.31,0000.01,0000.15,0000.04,21.8,00.0,0615.5,30.8
2020-01-21T00:45:00Z,00000388,01000608,0001.04,0000.43,0000.05,-000.45,0000.23,0000.40,-000.11,-000.21,0000.02,21.8,00.0,0615.4,30.8
2020-01-21T00:46:00Z,00000388,01000608,0000.70,-000.05,-000.07,-000.05,0000.10,-000.04,0000.09,0000.09,-000.11,21.8,00.0,0615.5,30.8
2020-01-21T00:47:00Z,00000388,01000608,0000.61,0000.26,0000.06,-000.08,-000.26,0000.42,0000.04,0000.26,0000.07,21.8,00.0,0615.5,30.8
2020-01-21T00:48:00Z,00000388,01000608,0001.06,0000.38,-000.07,0000.16,-000.54,0000.23,0000.02,-000.26,0000.14,21.8,00.0,0615.5,30.8
2020-01-21T00:49:00Z,00000388,01000608,0000.48,0000.33,0000.14,-000.32,-000.18,0000.25,-000.10,0000.12,0000.00,21.8,00.0,0615.5,30.8
2020-01-21T00:50:00Z,00000388,01000608,-000.24,0000.42,-000.19,-000.13,0000.18,0000.30,0000.00,-000.10,-000.05,21.8,00.0,0615.5,30.8
2020-01-21T00:51:00Z,00000388,01000608,-001.41,0000.08,0000.77,0001.08,0000.76,0000.18,-000.06,0000.17,-000.15,21.8,00.0,0615.6,30.8
2020-01-21T00:52:00Z,00000388,01000608,0000.24,-000.30,-000.10,-000.17,0000.11,0000.25,-000.02,-000.18,0000.06,21.8,00.0,0615.6,30.8
2020-01-21T00:53:00Z,00000388,01000608,0000.05,0000.22,0000.46,0000.56,-000.19,0000.24,0000.07,0000.04,0000.19,21.8,00.0,0615.6,30.8
2020-01-21T00:54:00Z,00000388,01000608,0000.91,0000.02,-000.21,0001.34,-000.17,-000.21,0000.14,0000.09,-000.15,21.8,00.0,0615.6,30.8
2020-01-21T00:55:00Z,00000388,01000608,0000.19,-000.16,0000.16,-000.08,-000.05,0000.42,-000.08,0000.12,0000.09,21.8,00.0,0615.6,30.8
2020-01-21T00:56:00Z,00000388,01000608,0000.12,-000.02,0000.52,-000.93,0000.43,-000.13,0000.01,-000.19,-000.17,21.8,00.0,0615.7,30.8
2020-01-21T00:57:00Z,00000388,41000608,,,,,,,,,,21.9,00.0,0615.7,30.8
2020-01-21T00:58:00Z,00000388,61000608,,,,,,,,,,22.0,00.0,0614.7,30.8
2020-01-21T00:59:00Z,00000388,21000608,,,,,,,,,,22.1,00.0,0614.7,30.8
2020-01-21T01:00:00Z,00000388,21000608,,,,,,,,,,22.1,00.0,0614.8,30.8
2020-01-21T01:01:00Z,00000388,21000608,,,,,,,,,,22.1,00.0,0614.8,30.8
2020-01-21T01:02:00Z,00000388,21000608,,,,,,,,,,22.1,00.0,0614.8,30.8
2020-01-21T01:03:00Z,00000388,61000608,,,,,,,,,,22.1,00.0,0614.8,30.8
2020-01-21T01:04:00Z,00000388,41000608,-000.23,0000.29,-000.18,0000.64,0000.42,-000.04,0000.13,0000.02,-000.09,22.0,00.0,0615.7,30.8
2020-01-21T01:05:00Z,00000388,01000608,0000.07,0000.11,-000.40,-000.68,0000.31,0000.01,-000.00,0000.07,0000.10,22.0,00.0,0615.7,30.8
2020-01-21T01:06:00Z,00000388,01000608,0000.75,0000.18,-000.23,-000.47,0000.59,-000.04,-000.04,-000.02,-000.02,21.9,00.0,0615.7,30.8
2020-01-21T01:07:00Z,00000388,01000608,0000.83,0000.72,-000.40,0000.71,0000.33,-000.01,0000.06,0000.04,0000.03,22.0,00.0,0615.7,30.8
2020-01-21T01:08:00Z,00000388,01000608,0001.18,0000.01,0000.25,0000.16,0000.12,0000.14,-000.02,-000.16,-000.16,21.9,00.0,0615.8,30.8
2020-01-21T01:09:00Z,00000388,01000608,0000.25,-000.07,-000.30,0000.78,0000.71,0000.32,0000.03,0000.03,-000.02,21.9,00.0,0615.8,30.8
2020-01-21T01:10:00Z,00000388,01000608,0001.08,0000.60,-000.06,0000.17,0000.92,0000.53,-000.06,0000.07,0000.12,22.0,00.0,0615.8,30.8
2020-01-21T01:11:00Z,00000388,01000608,0000.87,0000.46,0000.31,0000.86,0000.36,0000.28,0000.03,0000.03,-000.04,22.0,00.0,0615.8,30.8
2020-01-21T01:12:00Z,00000388,01000608,0000.44,0000.64,0000.38,0000.12,0000.70,0000.31,0000.02,0000.08,0000.04,21.9,00.0,0615.8,30.8
2020-01-21T01:13:00Z,00000388,01000608,0001.19,-000.22,0000.34,-000.83,0000.51,-000.09,0000.04,-000.03,0000.07,21.9,00.0,0615.8,30.8
2020-01-21T01:14:00Z,00000388,01000608,0001.09,0000.57,-000.24,-000.32,-000.32,0000.06,0000.06,0000.05,0000.10,21.9,00.0,0615.8,30.8
2020-01-21T01:15:00Z,00000388,01000608,0000.49,0000.45,-000.37,-000.37,0000.62,0000.17,-000.00,0000.02,-000.03,21.9,00.0,0615.9,30.8
2020-01-21T01:16:00Z,00000388,01000608,0001.18,0000.43,0000.29,-000.19,0000.24,0000.43,-000.11,0000.14,-000.05,21.9,00.0,0615.8,30.8
2020-01-21T01:17:00Z,00000388,01000608,0000.39,0000.26,0000.21,-000.16,-000.26,-000.02,0000.01,-000.22,-000.01,21.9,00.0,0615.8,30.8
2020-01-21T01:18:00Z,00000388,01000608,0000.47,-000.44,0000.08,-000.92,0000.29,0000.09,0000.05,-000.01,-000.02,21.9,00.0,0615.8,30.8
2020-01-21T01:19:00Z,00000388,01000608,0000.36,-000.25,0000.04,-000.71,0000.44,0000.63,0000.09,0000.06,0000.19,21.9,00.0,0615.8,30.8
2020-01-21T01:20:00Z,00000388,01000608,0000.39,0000.30,0000.18,0000.37,-000.02,0000.45,-000.00,0000.01,-000.07,21.9,00.0,0615.8,30.8
2020-01-21T01:21:00Z,00000388,01000608,0000.61,0000.16,0000.23,0000.50,0000.76,-000.13,-000.05,0000.09,-000.00,21.9,00.0,0615.8,30.8
2020-01-21T01:22:00Z,00000388,01000608,0000.56,0000.27,0000.04,-000.29,0000.64,0000.09,0000.03,-000.01,0000.07,21.9,00.0,0615.8,30.8
2020-01-21T01:23:00Z,00000388,01000608,0000.35,0000.44,0000.32,-000.26,0000.21,0000.02,0000.11,0000.09,-000.11,21.9,00.0,0615.8,30.8
2020-01-21T01:24:00Z,00000388,01000608,0000.52,-000.04,0000.06,-000.11,0000.45,-000.04,-000.07,-000.13,0000.03,21.9,00.0,0615.8,30.8
2020-01-21T01:25:00Z,00000388,01000608,0000.82,0000.10,-000.19,0000.18,0000.09,0000.03,-000.03,-000.07,0000.04,21.9,00.0,0615.9,30.8
2020-01-21T01:26:00Z,00000388,01000608,-000.25,-000.12,0000.77,-000.21,0000.06,0000.63,-000.06,0000.02,0000.07,21.9,00.0,0615.9,30.8
2020-01-21T01:27:00Z,00000388,01000608,0000.30,-000.10,0000.05,0000.52,0000.31,0000.58,0000.05,0000.06,-000.15,21.9,00.0,0616.0,30.8
2020-01-21T01:28:00Z,00000388,01000608,0000.39,-000.01,-000.03,0000.54,0000.30,0000.60,0000.10,-000.01,0000.14,21.9,00.0,0616.0,30.8
2020-01-21T01:29:00Z,00000388,01000608,0000.62,0000.12,-000.12,-000.01,0000.32,0000.16,-000.10,0000.06,-000.01,21.9,00.0,0616.0,30.8
2020-01-21T01:30:00Z,00000388,01000608,0000.72,0000.14,-000.35,0000.88,0000.58,-000.02,0000.02,-000.01,-000.05,21.9,00.0,0616.0,30.8
2020-01-21T01:31:00Z,00000388,01000608,0000.76,-000.40,-000.22,0000.09,0000.30,0000.41,-000.08,0000.13,-000.06,21.9,00.0,0616.0,30.8
2020-01-21T01:32:00Z,00000388,01000608,0001.06,0000.58,0000.04,0000.78,0000.44,-000.02,0000.16,-000.21,0000.14,21.9,00.0,0616.1,30.8
2020-01-21T01:33:00Z,00000388,01000608,0001.68,0000.20,-000.04,0000.57,0000.19,0000.37,-000.00,0000.24,0000.19,21.9,00.0,0616.1,30.8
2020-01-21T01:34:00Z,00000388,01000608,0000.84,0000.31,-000.37,0000.48,0000.27,0000.25,-000.16,0000.07,-000.22,21.9,00.0,0616.1,30.8
2020-01-21T01:35:00Z,00000388,01000608,0000.41,0000.53,-000.39,0000.06,0000.48,-000.34,0000.11,-000.12,0000.09,21.9,00.0,0616.2,30.8
2020-01-21T01:36:00Z,00000388,01000608,-000.12,0000.35,0000.07,-000.34,-000.06,0000.18,-000.01,-000.12,-000.15,21.9,00.0,0616.2,30.8
2020-01-21T01:37:00Z,00000388,01000608,0000.55,0000.04,0000.00,-000.15,0000.49,0000.24,-000.06,-000.15,0000.11,21.9,00.0,0616.2,30.8
2020-01-21T01:38:00Z,00000388,01000608,0000.66,0001.00,0000.10,0000.37,0000.45,0000.17,0000.04,0000.27,-000.15,21.9,00.0,0616.2,30.8
2020-01-21T01:39:00Z,00000388,01000608,0000.86,0000.31,0000.06,0000.30,0000.41,0000.69,-000.07,-000.11,0000.02,21.9,00.0,0616.2,30.8
2020-01-21T01:40:00Z,00000388,01000608,0000.42,-000.03,-000.46,0000.32,0000.16,0000.39,-000.04,0000.11,0000.03,21.9,00.0,0616.3,30.8
2020-01-21T01:41:00Z,00000388,01000608,0001.20,-000.19,-000.51,0001.22,0000.09,0000.37,0000.03,-000.08,0000.14,21.9,00.0,0616.3,30.8
2020-01-21T01:42:00Z,00000388,01000608,0000.14,-000.09,0000.01,0000.51,0000.28,-000.06,-000.05,-000.08,-000.20,21.9,00.0,0616.3,30.8
2020-01-21T01:43:00Z,00000388,01000608,0000.78,0000.26,0000.05,0000.24,0000.42,0000.62,0000.02,0000.10,0000.11,21.9,00.0,0616.3,30.8
2020-01-21T01:44:00Z,00000388,01000608,0000.75,0000.35,0000.01,0000.46,0000.50,0000.07,0000.05,-000.08,0000.12,21.9,00.0,0616.3,30.8
2020-01-21T01:45:00Z,00000388,01000608,0000.65,0000.06,0000.66,0000.97,0000.24,0000.19,-000.04,0000.17,-000.08,21.9,00.0,0616.3,30.8
2020-01-21T01:46:00Z,00000388,01000608,0002.04,0000.59,-000.46,-000.20,0000.06,0000.25,-000.06,-000.04,0000.05,21.9,00.0,0616.3,30.8
2020-01-21T01:47:00Z,00000388,01000608,0000.84,0000.10,0000.19,-001.05,0000.49,0000.27,0000.10,-000.10,0000.01,21.9,00.0,0616.3,30.8
2020-01-21T01:48:00Z,00000388,01000608,-000.02,0000.48,0000.20,0000.07,0000.18,-000.33,0000.13,0000.11,0000.00,21.9,00.0,0616.3,30.8
2020-01-21T01:49:00Z,00000388,01000608,0001.05,0000.42,0000.15,0000.23,0000.56,0000.43,-000.04,-000.10,0000.11,21.9,00.0,0616.3,30.8
2020-01-21T01:50:00Z,00000388,01000608,-000.24,0000.59,-000.36,-001.37,0000.01,0000.74,-000.02,-000.10,-000.11,21.9,00.0,0616.3,30.8
2020-01-21T01:51:00Z,00000388,01000608,0000.49,-000.09,0000.31,-000.21,0000.12,0000.19,-000.11,0000.06,-000.06,21.9,00.0,0616.4,30.8
2020-01-21T01:52:00Z,00000388,01000608,0001.45,0000.20,0000.27,-000.09,0000.09,0000.54,-000.01,0000.08,0000.15,21.9,00.0,0616.4,30.8
2020-01-21T01:53:00Z,00000388,01000608,-000.31,-000.04,0000.14,0000.46,-000.24,-000.04,0000.18,0000.05,-000.03,21.9,00.0,0616.3,30.8
2020-01-21T01:54:00Z,00000388,01000608,-000.63,0000.21,0000.14,0000.42,-000.31,0000.21,-000.23,-000.09,-000.17,21.9,00.0,0616.3,30.8
2020-01-21T01:55:00Z,00000388,01000608,-000.14,0000.85,0000.50,0000.55,0000.63,0000.06,0000.03,0000.05,0000.22,21.9,00.0,0616.3,30.8
2020-01-21T01:56:00Z,00000388,01000608,0001.51,0000.53,0000.14,0000.05,0000.32,0000.67,-000.01,-000.19,-000.22,22.0,00.0,0616.4,30.8
2020-01-21T01:57:00Z,00000388,41000608,,,,,,,,,,22.0,00.0,0616.4,30.8
2020-01-21T01:58:00Z,00000388,61000608,,,,,,,,,,22.1,00.0,0615.5,30.8
2020-01-21T01:59:00Z,00000388,21000608,,,,,,,,,,22.2,00.0,0615.5,30.8
2020-01-21T02:00:00Z,00000388,21000608,,,,,,,,,,22.2,00.0,0615.5,30.8
2020-01-21T02:01:00Z,00000388,21000608,,,,,,,,,,22.2,00.0,0615.5,30.8
2020-01-21T02:02:00Z,00000388,21000608,,,,,,,,,,22.2,00.0,0615.5,30.8
2020-01-21T02:03:00Z,00000388,61000608,,,,,,,,,,22.2,00.0,0615.5,30.8
2020-01-21T02:04:00Z,00000388,41000608,-000.32,0000.51,0000.11,0000.58,0000.49,-000.24,0000.01,0000.07,-000.01,22.1,00.0,0616.5,30.8
2020-01-21T02:05:00Z,00000388,01000608,-000.34,0000.08,-000.16,0000.09,0000.01,-000.02,0000.02,0000.00,0000.07,22.0,00.0,0616.6,30.8
2020-01-21T02:06:00Z,00000388,01000608,-000.75,-000.08,-000.37,-000.82,-000.51,-000.18,-000.09,-000.00,-000.27,22.0,00.0,0616.6,30.8
2020-01-21T02:07:00Z,00000388,01000608,-000.55,0000.33,0000.14,-000.58,-000.22,-000.12,-000.01,0000.01,0000.16,22.0,00.0,0616.6,30.8
2020-01-21T02:08:00Z,00000388,01000608,-000.69,0000.22,0000.09,0000.16,0000.30,0000.21,0000.08,-000.01,0000.12,22.0,00.0,0616.7,30.8
2020-01-21T02:09:00Z,00000388,01000608,0000.51,-000.08,0000.06,-000.83,0000.22,0000.02,-000.09,-000.22,-000.15,22.0,00.0,0616.7,30.8
2020-01-21T02:10:00Z,00000388,01000608,-000.40,0000.13,-000.03,0000.48,-000.23,0000.12,0000.07,0000.18,0000.04,22.0,00.0,0616.7,30.8
2020-01-21T02:11:00Z,00000388,01000608,-000.64,-000.47,-000.36,-000.53,-000.09,-000.24,-000.06,-000.02,0000.02,21.9,00.0,0616.7,30.8
2020-01-21T02:12:00Z,00000388,01000608,-000.34,0000.49,0000.36,-000.21,-000.04,0000.25,0000.12,-000.01,-000.06,22.0,00.0,0616.7,30.8
2020-01-21T02:13:00Z,00000388,01000608,0000.07,0000.58,-000.32,0000.12,-000.52,-000.19,-000.14,-000.03,0000.02,21.9,00.0,0616.7,30.8
2020-01-21T02:14:00Z,00000388,01000608,0000.02,0000.15,0000.52,-000.36,-000.45,0000.03,0000.13,0000.04,0000.16,21.9,00.0,0616.7,30.8
2020-01-21T02:15:00Z,00000388,01000608,-000.83,0000.14,0000.23,-000.54,-000.11,-000.27,0000.00,-000.04,-000.11,22.0,00.0,0616.7,30.8
2020-01-21T02:16:00Z,00000388,01000608,-000.66,0000.16,0000.31,0000.15,-000.11,0000.24,0000.03,-000.09,0000.00,21.9,00.0,0616.7,30.8
2020-01-21T02:17:00Z,00000388,01000608,-000.11,-000.61,0000.36,0000.08,0000.11,0000.27,-000.20,-000.06,-000.06,21.9,00.0,0616.7,30.8
2020-01-21T02:18:00Z,00000388,01000608,-000.54,0000.15,0000.93,-000.43,0000.25,0000.34,0000.21,0000.25,0000.11,21.9,00.0,0616.7,30.8
2020-01-21T02:19:00Z,00000388,01000608,-000.34,0000.08,-000.26,0001.02,0000.22,0000.15,-000.06,0000.01,0000.01,21.9,00.0,0616.7,30.8
2020-01-21T02:20:00Z,00000388,01000608,0000.34,0000.68,0000.54,-000.47,-000.14,0000.15,-000.00,-000.06,-000.02,21.9,00.0,0616.7,30.8
2020-01-21T02:21:00Z,00000388,01000608,-000.15,0000.37,-000.71,-000.32,-000.20,-000.23,-000.03,-000.16,-000.19,21.9,00.0,0616.6,30.8
2020-01-21T02:22:00Z,00000388,01000608,-000.55,0000.18,0000.03,-000.85,0000.09,0000.05,0000.09,0000.19,0000.25,21.9,00.0,0616.6,30.8
2020-01-21T02:23:00Z,00000388,01000608,-000.19,0000.37,0000.06,-000.30,-000.39,0000.12,0000.03,0000.09,-000.05,21.9,00.0,0616.6,30.8
2020-01-21T02:24:00Z,00000388,01000608,-001.12,0000.20,0000.14,-000.60,0000.51,0000.02,0000.19,0000.01,-000.00,21.9,00.0,0616.6,30.8
2020-01-21T02:25:00Z,00000388,01000608,-000.43,0000.33,-000.22,-000.48,0000.21,-000.19,-000.04,-000.12,0000.04,21.9,00.0,0616.6,30.8
2020-01-21T02:26:00Z,00000388,01000608,-001.04,-000.10,0000.21,-000.30,-000.15,0000.48,-000.08,0000.03,-000.11,21.9,00.0,0616.6,30.8
2020-01-21T02:27:00Z,00000388,01000608,-000.42,0000.03,0000.46,0000.33,-000.06,0000.40,-000.01,0000.04,0000.05,21.9,00.0,0616.6,30.8
2020-01-21T02:28:00Z,00000388,01000608,0000.39,0000.65,0000.21,-001.01,0000.22,-000.15,0000.06,-000.05,0000.11,21.9,00.0,0616.6,30.8
2020-01-21T02:29:00Z,00000388,01000608,0000.51,-000.03,0000.14,-000.01,-000.12,0000.03,0000.18,0000.18,-000.02,21.9,00.0,0616.7,30.8
2020-01-21T02:30:00Z,00000388,01000608,0000.66,0001.13,0000.16,-000.37,0000.33,0000.21,-000.14,-000.12,-000.03,21.9,00.0,0616.7,30.8
2020-01-21T02:31:00Z,00000388,01000608,-000.38,0000.60,0000.07,-000.33,0000.47,0000.18,0000.04,0000.03,0000.09,21.9,00.0,0616.6,30.8
2020-01-21T02:32:00Z,00000388,01000608,-000.91,0000.15,0000.18,-000.39,0000.24,0000.28,0000.14,0000.07,-000.00,21.9,00.0,0616.6,30.8
2020-01-21T02:33:00Z,00000388,01000608,-001.16,-000.13,0000.39,-000.79,0000.16,0000.46,-000.09,-000.02,0000.05,21.9,00.0,0616.6,30.8
2020-01-21T02:34:00Z,00000388,01000608,-001.24,-000.03,0000.13,-000.48,-000.09,0000.56,0000.04,0000.03,-000.09,21.9,00.0,0616.5,30.8
2020-01-21T02:35:00Z,00000388,01000608,-001.44,0000.25,0000.50,-000.13,0000.20,-000.15,-000.05,-000.14,0000.05,21.9,00.0,0616.6,30.8
2020-01-21T02:36:00Z,00000388,01000608,-000.90,-000.53,0000.20,0000.03,0000.20,0000.11,0000.07,0000.21,0000.04,21.9,00.0,0616.6,30.8
2020-01-21T02:37:00Z,00000388,01000608,-000.18,0000.75,0000.23,-000.04,0000.00,0000.12,-000.05,0000.02,0000.03,21.9,00.0,0616.6,30.8
2020-01-21T02:38:00Z,00000388,01000608,-000.36,0000.57,0000.19,-000.66,0000.20,-000.05,-000.06,-000.01,-000.12,21.9,00.0,0616.6,30.8
2020-01-21T02:39:00Z,00000388,01000608,-000.25,-000.23,0000.81,-001.20,0000.04,0000.29,0000.17,-000.03,0000.01,21.9,00.0,0616.6,30.8
2020-01-21T02:40:00Z,00000388,01000608,-000.74,0000.13,0001.41,0000.18,0000.22,0000.52,-000.13,0000.03,0000.04,21.9,00.0,0616.6,30.8
2020-01-21T02:41:00Z,00000388,01000608,-000.31,-000.07,0000.60,0000.10,0000.46,0000.07,0000.14,-000.11,-000.01,21.9,00.0,0616.6,30.8
2020-01-21T02:42:00Z,00000388,01000608,-000.35,0000.61,0000.34,-000.20,0000.53,-000.11,-000.10,0000.04,-000.06,21.9,00.0,0616.6,30.8
2020-01-21T02:43:00Z,00000388,01000608,0000.22,0000.59,-000.05,0000.30,0000.06,0000.12,0000.08,0000.10,0000.01,21.9,00.0,0616.6,30.8
2020-01-21T02:44:00Z,00000388,01000608,0000.11,0000.44,0000.83,-000.51,0000.20,0000.20,0000.02,-000.10,0000.03,21.9,00.0,0616.6,30.8
2020-01-21T02:45:00Z,00000388,01000608,-000.43,0000.87,0000.25,-000.55,0000.23,0000.16,0000.03,0000.08,-000.02,21.9,00.0,0616.6,30.8
2020-01-21T02:46:00Z,00000388,01000608,-000.50,0000.22,0000.46,0000.38,-000.13,0000.35,0000.08,0000.05,0000.05,21.9,00.0,0616.6,30.8
2020-01-21T02:47:00Z,00000388,01000608,-000.85,0000.14,0000.12,-000.14,0000.40,0000.02,-000.02,0000.10,0000.03,21.9,00.0,0616.6,30.8
2020-01-21T02:48:00Z,00000388,01000608,-000.61,0000.31,0000.40,0000.28,0000.61,0000.12,0000.06,-000.11,0000.03,21.9,00.0,0616.7,30.8
2020-01-21T02:49:00Z,00000388,01000608,0000.01,0000.17,0000.33,0000.00,-000.09,-000.27,-000.01,0000.03,0000.10,21.9,00.0,0616.7,30.8
2020-01-21T02:50:00Z,00000388,01000608,-001.79,-000.02,0000.38,0000.12,-000.48,0000.16,0000.11,0000.10,-000.13,21.9,00.0,0616.7,30.8
2020-01-21T02:51:00Z,00000388,01000608,-001.45,0000.36,0000.32,0000.22,0000.14,0000.07,0000.01,-000.02,-000.10,21.9,00.0,0616.6,30.8
2020-01-21T02:52:00Z,00000388,01000608,-000.28,0000.43,0000.26,0000.52,-000.04,-000.25,-000.07,-000.15,0000.12,21.9,00.0,0616.6,30.8
2020-01-21T02:53:00Z,00000388,01000608,-000.21,0000.58,0000.46,-000.06,-000.26,0000.39,0000.17,0000.01,-000.04,21.9,00.0,0616.7,30.8
2020-01-21T02:54:00Z,00000388,01000608,-001.55,0000.43,0000.60,0000.50,-000.05,0000.67,-000.09,0000.12,-000.00,21.9,00.0,0616.7,30.8
2020-01-21T02:55:00Z,00000388,01000608,0000.15,0000.40,-000.10,-000.50,0000.27,-000.05,0000.00,-000.01,0000.02,21.9,00.0,0616.7,30.8
2020-01-21T02:56:00Z,00000388,01000608,-000.64,0000.52,0000.31,0000.13,-000.01,0000.06,-000.13,-000.18,-000.03,21.9,00.0,0616.7,30.8
2020-01-21T02:57:00Z,00000388,41000608,,,,,,,,,,21.9,00.0,0616.7,30.8
2020-01-21T02:58:00Z,00000388,61000608,,,,,,,,,,22.0,00.0,0615.8,30.8
2020-01-21T02:59:00Z,00000388,21000608,,,,,,,,,,22.2,00.0,0615.8,30.8
2020-01-21T03:00:00Z,00000388,21000608,,,,,,,,,,22.2,00.0,0615.8,30.8
2020-01-21T03:01:00Z,00000388,21000608,,,,,,,,,,22.2,00.0,0615.8,30.8
2020-01-21T03:02:00Z,00000388,21000608,,,,,,,,,,22.2,00.0,0615.8,30.8
2020-01-21T03:03:00Z,00000388,61000608,,,,,,,,,,22.2,00.0,0615.8,30.8
2020-01-21T03:04:00Z,00000388,41000608,-001.30,0000.04,0000.72,0000.50,0000.56,0000.10,0000.09,-000.05,-000.06,22.0,00.0,0616.7,30.8
2020-01-21T03:05:00Z,00000388,01000608,-000.32,0000.42,0000.36,-000.39,-000.01,0000.01,-000.01,0000.11,-000.02,22.0,00.0,0616.8,30.8
2020-01-21T03:06:00Z,00000388,01000608,0000.31,0000.20,-000.14,-000.01,0000.05,-000.27,0000.01,0000.06,0000.07,22.0,00.0,0616.9,30.8
2020-01-21T03:07:00Z,00000388,01000608,0000.82,-000.35,0000.54,-000.92,0000.10,0000.34,0000.09,-000.07,0000.01,22.0,00.0,0616.9,30.8
2020-01-21T03:08:00Z,00000388,01000608,-000.35,-000.10,-000.01,-000.23,0000.50,-000.17,0000.08,-000.00,0000.11,21.9,00.0,0617.0,30.8
2020-01-21T03:09:00Z,00000388,01000608,0000.31,0000.70,0000.25,0000.54,0000.27,0000.25,-000.02,0000.12,-000.01,21.9,00.0,0617.0,30.8
2020-01-21T03:10:00Z,00000388,01000608,0000.58,0000.10,0000.21,0000.63,-000.05,0000.05,-000.12,-000.14,-000.22,21.9,00.0,0617.0,30.8